Hourly Weather Abay (Syrdarinskiy rayon)

Today, 27 October, Tuesday

Time Temperature Precipitation Wind Pressure Humidity
00:00 +7°C° 0 mm 5 mps 749 mmHg 81%
01:00 +6°C° 0 mm 5 mps 749 mmHg 86%
02:00 +6°C° 0 mm 5 mps 749 mmHg 86%
03:00 +5°C° 0 mm 5 mps 750 mmHg 87%
04:00 +5°C° 0 mm 5 mps 750 mmHg 87%
05:00 +5°C° 0 mm 5 mps 750 mmHg 84%
06:00 +3°C° 0 mm 5 mps 750 mmHg 81%
07:00 +3°C° 0 mm 6 mps 751 mmHg 79%
08:00 +4°C° 0 mm 6 mps 751 mmHg 66%
09:00 +4°C° 0 mm 7 mps 751 mmHg 53%
10:00 +5°C° 0 mm 8 mps 752 mmHg 41%
11:00 +5°C° 0 mm 8 mps 752 mmHg 36%
12:00 +6°C° 0 mm 7 mps 752 mmHg 31%
13:00 +6°C° 0 mm 7 mps 752 mmHg 27%
14:00 +6°C° 0 mm 7 mps 753 mmHg 27%
15:00 +5°C° 0 mm 6 mps 753 mmHg 28%
16:00 +5°C° 0 mm 6 mps 754 mmHg 29%
17:00 +5°C° 0 mm 5 mps 754 mmHg 32%
18:00 +2°C° 0 mm 5 mps 754 mmHg 35%
19:00 +1°C° 0 mm 4 mps 755 mmHg 38%
20:00 0°C° 0 mm 4 mps 755 mmHg 41%
21:00 +1°C° 0 mm 3 mps 755 mmHg 43%
22:00 0°C° 0 mm 3 mps 756 mmHg 46%
23:00 0°C° 0 mm 3 mps 756 mmHg 49%

Tomorrow, 28 October, Wednesday

Time Temperature Precipitation Wind Pressure Humidity
00:00 0°C° 0 mm 3 mps 756 mmHg 51%
01:00 -1°C° 0 mm 3 mps 757 mmHg 54%
02:00 0°C° 0 mm 3 mps 757 mmHg 55%
03:00 0°C° 0 mm 3 mps 757 mmHg 56%
04:00 0°C° 0 mm 3 mps 758 mmHg 58%
05:00 0°C° 0 mm 3 mps 758 mmHg 62%
06:00 -2°C° 0 mm 4 mps 759 mmHg 66%
07:00 -2°C° 0 mm 4 mps 760 mmHg 70%
08:00 0°C° 0 mm 4 mps 760 mmHg 64%
09:00 +1°C° 0 mm 4 mps 761 mmHg 58%
10:00 +3°C° 0 mm 4 mps 761 mmHg 53%
11:00 +4°C° 0 mm 4 mps 761 mmHg 50%
12:00 +5°C° 0 mm 4 mps 761 mmHg 48%
13:00 +6°C° 0 mm 4 mps 761 mmHg 45%
14:00 +5°C° 0 mm 4 mps 762 mmHg 46%
15:00 +5°C° 0 mm 4 mps 762 mmHg 47%
16:00 +5°C° 0 mm 3 mps 762 mmHg 47%
17:00 +4°C° 0 mm 3 mps 763 mmHg 52%
18:00 +2°C° 0 mm 3 mps 763 mmHg 57%
19:00 +1°C° 0 mm 3 mps 764 mmHg 62%
20:00 0°C° 0 mm 3 mps 764 mmHg 64%
21:00 0°C° 0 mm 3 mps 764 mmHg 66%
22:00 0°C° 0 mm 3 mps 764 mmHg 67%
23:00 -1°C° 0 mm 3 mps 764 mmHg 69%

Day after tomorrow, 29 October, Thursday

Time Temperature Precipitation Wind Pressure Humidity
00:00 -1°C° 0 mm 2 mps 764 mmHg 71%
01:00 -1°C° 0 mm 2 mps 764 mmHg 73%
02:00 -2°C° 0 mm 3 mps 764 mmHg 74%
03:00 -2°C° 0 mm 3 mps 765 mmHg 75%
04:00 -2°C° 0 mm 3 mps 765 mmHg 75%
05:00 -2°C° 0 mm 3 mps 765 mmHg 74%
06:00 -2°C° 0 mm 3 mps 765 mmHg 73%
07:00 -1°C° 0 mm 3 mps 766 mmHg 71%
08:00 +1°C° 0 mm 3 mps 766 mmHg 62%
09:00 +3°C° 0 mm 4 mps 766 mmHg 53%
10:00 +5°C° 0 mm 4 mps 766 mmHg 44%
11:00 +6°C° 0 mm 4 mps 766 mmHg 39%
12:00 +7°C° 0 mm 4 mps 765 mmHg 34%
13:00 +10°C° 0 mm 4 mps 765 mmHg 29%
14:00 +8°C° 0 mm 4 mps 765 mmHg 29%
15:00 +8°C° 0 mm 4 mps 765 mmHg 30%
16:00 +7°C° 0 mm 4 mps 765 mmHg 30%
17:00 +6°C° 0 mm 4 mps 765 mmHg 34%
18:00 +5°C° 0 mm 4 mps 765 mmHg 37%
19:00 +3°C° 0 mm 4 mps 765 mmHg 40%
20:00 +3°C° 0 mm 4 mps 765 mmHg 41%
21:00 +2°C° 0 mm 5 mps 765 mmHg 42%
22:00 +1°C° 0 mm 5 mps 765 mmHg 43%
23:00 +1°C° 0 mm 5 mps 764 mmHg 44%

30 October, Friday

Time Temperature Precipitation Wind Pressure Humidity
00:00 +1°C° 0 mm 5 mps 764 mmHg 45%
01:00 0°C° 0 mm 5 mps 764 mmHg 46%
02:00 0°C° 0 mm 5 mps 764 mmHg 47%
03:00 -1°C° 0 mm 6 mps 763 mmHg 48%
04:00 -1°C° 0 mm 6 mps 763 mmHg 48%
05:00 -1°C° 0 mm 6 mps 763 mmHg 47%
06:00 -1°C° 0 mm 7 mps 763 mmHg 46%
07:00 -1°C° 0 mm 7 mps 763 mmHg 45%
08:00 +2°C° 0 mm 8 mps 763 mmHg 40%
09:00 +5°C° 0 mm 8 mps 763 mmHg 34%
10:00 +7°C° 0 mm 9 mps 762 mmHg 29%
11:00 +8°C° 0 mm 9 mps 762 mmHg 26%
12:00 +11°C° 0 mm 9 mps 762 mmHg 24%
13:00 +12°C° 0 mm 9 mps 761 mmHg 22%
14:00 +11°C° 0 mm 8 mps 761 mmHg 23%
15:00 +10°C° 0 mm 8 mps 761 mmHg 24%
16:00 +10°C° 0 mm 7 mps 760 mmHg 25%
17:00 +9°C° 0 mm 7 mps 760 mmHg 28%
18:00 +6°C° 0 mm 7 mps 760 mmHg 32%
19:00 +5°C° 0 mm 6 mps 760 mmHg 36%
20:00 +5°C° 0 mm 7 mps 760 mmHg 38%
21:00 +4°C° 0 mm 7 mps 760 mmHg 39%
22:00 +4°C° 0 mm 7 mps 760 mmHg 41%
23:00 +4°C° 0 mm 7 mps 759 mmHg 42%

31 October, Saturday

Time Temperature Precipitation Wind Pressure Humidity
00:00 +3°C° 0 mm 7 mps 759 mmHg 43%
01:00 +3°C° 0 mm 7 mps 759 mmHg 44%
02:00 +2°C° 0 mm 7 mps 759 mmHg 46%
03:00 +2°C° 0 mm 7 mps 759 mmHg 49%
04:00 0°C° 0 mm 7 mps 758 mmHg 51%
05:00 0°C° 0 mm 7 mps 758 mmHg 52%
06:00 0°C° 0 mm 7 mps 759 mmHg 53%
07:00 0°C° 0 mm 7 mps 759 mmHg 53%
08:00 +4°C° 0 mm 8 mps 758 mmHg 46%
09:00 +6°C° 0 mm 9 mps 758 mmHg 38%
10:00 +10°C° 0 mm 9 mps 758 mmHg 31%
11:00 +11°C° 0 mm 9 mps 758 mmHg 28%
12:00 +12°C° 0 mm 10 mps 758 mmHg 25%
13:00 +14°C° 0 mm 10 mps 757 mmHg 23%
14:00 +13°C° 0 mm 9 mps 757 mmHg 24%
15:00 +12°C° 0 mm 8 mps 757 mmHg 25%
16:00 +11°C° 0 mm 7 mps 757 mmHg 26%
17:00 +10°C° 0 mm 6 mps 757 mmHg 28%
18:00 +9°C° 0 mm 6 mps 757 mmHg 29%
19:00 +7°C° 0 mm 6 mps 757 mmHg 31%
20:00 +7°C° 0 mm 6 mps 757 mmHg 32%
21:00 +6°C° 0 mm 5 mps 757 mmHg 33%
22:00 +6°C° 0 mm 5 mps 756 mmHg 34%
23:00 +5°C° 0 mm 5 mps 756 mmHg 36%

1 November, Sunday

Time Temperature Precipitation Wind Pressure Humidity
00:00 +5°C° 0 mm 5 mps 756 mmHg 38%
01:00 +3°C° 0 mm 5 mps 756 mmHg 40%
02:00 +3°C° 0 mm 5 mps 756 mmHg 43%
03:00 +2°C° 0 mm 5 mps 756 mmHg 45%
04:00 +1°C° 0 mm 4 mps 756 mmHg 48%
05:00 +1°C° 0 mm 4 mps 756 mmHg 49%
06:00 +1°C° 0 mm 4 mps 756 mmHg 49%
07:00 +1°C° 0 mm 4 mps 756 mmHg 50%
08:00 +5°C° 0 mm 4 mps 756 mmHg 42%
09:00 +8°C° 0 mm 4 mps 756 mmHg 34%
10:00 +12°C° 0 mm 4 mps 756 mmHg 26%
11:00 +13°C° 0 mm 3 mps 756 mmHg 23%
12:00 +16°C° 0 mm 2 mps 756 mmHg 20%
13:00 +18°C° 0 mm 1 mps 756 mmHg 17%
14:00 +16°C° 0 mm 2 mps 755 mmHg 20%
15:00 +15°C° 0 mm 2 mps 755 mmHg 22%
16:00 +13°C° 0 mm 2 mps 755 mmHg 24%
17:00 +12°C° 0 mm 2 mps 755 mmHg 28%
18:00 +9°C° 0 mm 3 mps 755 mmHg 33%
19:00 +8°C° 0 mm 3 mps 755 mmHg 38%
20:00 +7°C° 0 mm 2 mps 755 mmHg 43%
21:00 +6°C° 0 mm 2 mps 755 mmHg 49%
22:00 +5°C° 0 mm 1 mps 755 mmHg 55%
23:00 +5°C° 0 mm 1 mps 755 mmHg 57%
Show more